Wind_Speed
3 3 4 4 4 3 3 2 1 1 1 1 2 3 4 4 5 6 6 7 8 8 9 9 10 10 11 11 11 12 12 13 13 13 13 13 13 13 13 14 14 14 14 15 15 16 16 17 18
2 2 3 3 3 3 3 2 1 0 1 1 2 3 4 4 5 6 7 7 8 9 9 9 10 10 10 11 11 11 12 12 12 12 12 12 12 12 12 12 12 13 13 13 14 14 15 16 16
1 2 2 2 2 2 3 2 1 0 1 1 2 3 4 4 5 6 7 7 8 8 9 9 9 10 10 11 11 12 12 12 12 12 12 12 12 12 12 12 12 12 13 13 13 14 15 15 16
2 3 3 3 2 2 1 1 1 1 1 2 3 3 3 4 5 6 6 7 7 7 8 9 9 10 11 11 12 12 12 12 12 13 13 12 12 12 12 13 13 13 13 13 14 14 15 15 16
3 4 4 3 3 2 2 1 1 2 2 2 3 3 3 4 4 5 6 7 7 8 9 10 10 11 11 12 12 12 13 13 13 14 14 14 14 14 14 14 14 14 14 14 15 15 15 16 16
5 4 4 4 4 3 3 3 3 3 3 4 4 5 3 5 5 6 7 8 8 9 10 11 11 11 12 13 13 14 14 15 15 15 15 15 15 15 15 16 16 16 16 16 16 16 17 17 17
7 6 6 5 5 5 5 5 5 5 6 6 7 7 5 6 7 7 8 9 10 10 11 12 12 13 14 14 15 15 16 16 17 17 17 17 17 18 18 18 18 18 18 18 18 18 18 18 18
9 9 8 8 7 7 7 7 7 7 8 8 9 9 8 8 8 9 10 10 11 12 12 13 14 15 16 16 17 18 18 19 19 19 20 20 20 21 21 21 21 21 21 21 21 21 21 21 21
11 11 11 11 10 9 9 9 9 10 11 11 11 11 11 11 11 11 12 12 13 14 15 15 17 17 18 19 19 20 21 21 22 22 23 23 23 24 24 25 25 25 25 25 25 24 24 24 24
13 13 13 13 12 12 11 11 12 12 13 13 14 13 13 14 14 14 14 15 16 17 17 18 19 20 20 21 22 22 23 24 24 25 26 26 26 27 27 27 28 28 28 28 28 28 28 28 28
15 16 15 14 14 14 14 14 14 14 15 15 16 15 15 16 16 17 17 17 18 18 19 20 20 21 22 23 23 24 25 25 26 26 27 28 28 29 29 30 30 30 31 31 31 31 32 32 32
18 18 17 16 16 16 16 16 16 16 17 17 18 18 18 18 18 18 19 19 20 20 21 21 22 22 23 23 24 25 25 26 27 28 28 29 29 30 30 31 31 32 32 33 33 34 34 35 35
19 19 19 18 18 18 18 18 18 19 19 19 20 20 20 20 20 20 21 21 21 22 22 23 24 24 24 24 25 25 26 27 28 29 29 29 29 30 30 31 31 32 33 33 34 35 36 36 37
21 20 20 20 20 20 20 20 20 20 20 21 21 21 22 22 22 22 22 23 23 23 24 24 25 25 25 25 25 26 27 27 28 29 29 29 30 30 31 31 32 33 33 34 34 35 36 37 38
23 22 22 22 22 22 22 22 21 21 22 22 22 22 23 23 23 23 24 24 24 24 24 25 25 25 25 26 26 26 27 27 27 28 29 29 30 30 30 31 32 33 33 34 35 36 37 37 38
24 24 25 23 23 23 24 24 23 23 23 23 23 23 23 23 23 24 24 24 25 25 25 25 25 25 25 26 26 26 27 27 27 28 29 29 30 30 31 31 32 33 34 34 35 36 37 38 39
25 25 25 25 24 24 24 25 24 23 24 24 24 23 23 23 23 24 24 24 24 24 24 24 25 25 25 26 26 27 27 28 28 29 29 30 31 31 32 32 33 34 35 35 36 37 38 39 40
26 25 25 26 24 24 25 25 25 24 24 24 24 23 23 24 24 24 24 24 23 24 24 24 25 25 26 26 27 28 28 28 29 29 30 31 31 32 32 33 34 35 35 36 37 38 39 39 40
26 26 25 25 25 24 24 24 25 24 23 23 23 23 23 24 24 23 23 23 23 23 24 24 25 25 26 27 27 28 28 29 30 30 31 32 32 33 34 34 35 36 37 37 38 40 40 41 42
26 26 26 26 26 25 24 24 24 23 23 24 23 23 23 23 23 22 22 22 23 23 24 24 25 26 27 27 28 29 30 31 31 32 32 33 34 34 35 36 37 38 38 39 40 42 42 43 44
27 26 26 26 26 26 26 24 24 23 23 23 23 22 22 22 21 21 22 22 23 23 24 25 26 27 28 29 30 31 31 32 32 33 34 35 36 37 37 38 38 39 41 41 43 44 45 46 47
27 26 26 26 27 25 26 25 22 22 21 21 21 21 21 21 21 21 22 22 23 24 25 26 27 28 29 30 31 32 33 34 34 35 36 37 37 38 39 40 41 42 43 44 45 47 48 50 50
26 25 26 26 27 26 24 26 22 20 19 20 20 20 20 20 20 21 22 23 24 25 26 27 28 30 31 32 33 34 35 36 36 37 38 38 39 41 42 43 44 45 46 47 48 50 51 53 54
26 25 26 26 27 25 22 25 23 19 19 20 20 20 20 20 20 21 22 24 25 26 28 29 30 32 33 34 35 36 37 37 38 39 40 41 42 43 44 45 46 47 49 50 52 53 55 56 58
27 26 26 26 25 24 22 23 23 19 19 20 20 20 20 21 22 23 24 26 27 28 30 31 32 33 35 36 37 38 39 39 40 41 43 44 45 45 46 47 49 50 51 53 55 56 58 60 62
27 27 26 26 25 25 22 22 21 19 21 21 21 21 21 22 23 24 26 28 29 30 32 33 34 35 37 38 39 40 41 42 43 44 45 46 47 48 49 50 51 53 54 56 58 60 62 64 66
27 26 26 26 24 25 23 22 20 20 22 22 22 22 23 24 25 27 28 29 31 32 34 35 36 37 39 40 41 42 43 44 45 46 46 48 49 50 51 52 54 56 57 59 61 63 65 67 69
27 26 26 25 25 25 23 23 21 18 22 23 24 24 25 26 27 29 30 32 33 35 36 37 39 40 41 42 43 43 45 46 46 47 49 50 51 52 54 55 57 58 60 62 64 66 68 70 73
26 26 26 26 25 25 24 25 23 21 23 24 25 26 27 28 29 31 32 34 36 37 38 40 41 42 43 44 44 45 46 47 49 50 51 52 53 54 56 58 59 61 63 65 67 69 71 73 75
27 26 26 26 26 26 26 26 24 25 26 26 27 27 29 30 32 33 35 36 38 39 41 42 43 44 45 46 46 47 48 49 50 51 53 54 55 57 59 60 62 64 66 68 70 72 74 75 76
Wind_Direction
102 110 119 124 131 148 115 114 151 184 218 255 272 280 284 289 295 294 289 291 290 287 285 284 283 282 281 280 280 280 280 280 281 282 283 283 283 283 283 283 283 283 282 281 280 279 278 277 277
122 120 124 129 149 133 111 108 138 173 242 264 272 280 286 294 297 293 290 290 288 286 283 281 282 282 281 281 281 282 282 282 283 284 284 284 284 285 285 285 285 285 285 283 282 281 280 279 278
161 154 149 144 158 120 119 125 127 150 277 277 281 287 292 295 292 288 288 287 286 285 285 283 283 283 282 282 283 284 284 284 284 284 286 286 286 287 287 287 288 288 288 286 285 284 283 282 281
198 196 181 180 159 131 123 150 150 236 262 282 291 293 299 298 296 294 293 291 289 287 286 286 286 285 285 285 285 285 285 285 285 285 286 286 286 286 286 287 287 287 287 287 286 285 284 283 282
218 211 204 188 180 172 183 212 236 254 268 283 291 299 312 299 303 302 301 299 295 291 289 288 287 287 287 287 287 287 287 287 287 286 286 286 285 285 286 286 286 286 287 287 287 286 285 284 283
234 230 222 208 204 206 217 231 246 261 272 282 291 299 320 305 305 306 304 302 300 295 292 290 289 288 288 288 287 287 287 287 287 286 286 285 285 284 285 285 285 285 285 285 285 284 284 283 283
241 244 240 233 229 231 234 244 255 266 273 282 289 294 309 300 304 302 299 298 298 296 294 291 290 289 288 287 287 287 287 287 287 286 285 284 284 283 283 283 283 283 282 282 281 281 281 281 280
245 247 247 244 242 244 247 251 258 265 271 277 283 290 299 295 299 298 296 296 295 294 293 292 292 290 289 288 287 287 286 286 285 285 284 283 282 282 282 281 281 281 280 280 279 278 278 278 277
247 247 249 250 250 252 254 256 260 265 269 273 278 283 289 291 292 292 292 293 293 293 292 291 292 291 290 288 287 286 286 285 285 284 283 283 282 281 281 280 280 279 279 278 278 277 276 276 275
247 249 251 254 255 256 258 260 262 265 268 273 277 281 284 287 288 288 289 290 292 292 292 292 291 290 289 288 287 286 286 285 285 284 283 283 281 281 280 279 279 278 277 277 276 276 275 274 273
249 250 254 256 258 259 260 261 262 264 267 272 276 280 282 284 286 287 288 288 289 291 292 292 291 290 289 288 288 287 287 286 285 285 284 283 282 281 280 279 279 278 277 276 275 275 274 273 273
250 253 255 256 258 260 261 262 263 265 268 272 275 278 281 283 284 286 288 289 290 291 292 292 292 291 290 289 288 288 288 287 286 286 285 284 284 283 282 281 280 279 278 277 276 275 275 274 273
251 253 256 256 258 259 262 264 266 268 270 272 274 276 279 281 283 285 287 289 290 291 291 291 291 291 291 290 290 289 289 289 288 287 287 286 285 285 284 283 282 281 280 279 278 277 276 275 274
252 254 256 258 259 261 262 265 267 269 271 272 274 276 278 280 282 284 286 287 288 289 290 291 291 291 291 290 290 290 290 289 289 288 288 287 286 286 285 285 284 283 282 281 280 279 278 277 276
252 254 256 258 260 262 264 265 267 270 271 273 274 276 278 279 281 283 285 286 288 288 289 290 290 291 291 291 291 291 291 290 290 289 289 288 288 288 287 287 286 285 284 283 282 281 280 279 278
252 254 255 257 260 262 265 267 268 269 271 273 274 276 277 279 281 282 284 285 286 287 289 289 290 291 292 292 292 292 292 292 291 290 289 289 289 289 288 287 286 286 285 285 284 283 282 281 280
252 254 257 258 259 263 266 269 271 270 271 273 274 275 277 278 280 282 283 284 286 287 289 290 291 292 292 292 293 293 292 292 291 291 290 290 290 290 289 288 288 287 287 286 286 285 284 283 282
253 256 259 263 261 263 267 269 271 271 271 273 274 275 277 278 280 282 283 285 286 288 289 291 292 292 292 293 293 293 293 292 292 292 291 291 291 291 290 290 289 288 288 287 286 286 285 284 283
254 255 259 263 265 265 267 269 271 272 273 274 275 277 278 280 281 283 284 286 288 290 291 292 292 292 293 294 294 294 294 293 293 292 292 292 292 292 292 291 290 290 289 289 288 287 286 286 285
254 256 259 262 265 266 267 269 271 272 273 275 277 278 279 281 281 282 284 286 288 290 292 293 293 294 294 294 295 295 294 293 293 293 293 293 294 294 293 292 292 291 291 290 289 289 288 287 287
254 257 259 261 264 265 267 267 271 273 274 276 277 279 279 280 282 283 285 287 289 291 293 294 295 296 296 295 296 296 295 294 294 295 295 295 295 295 294 293 293 292 292 291 291 290 289 289 288
254 257 259 261 263 265 268 268 267 272 275 277 278 279 280 281 282 284 286 288 290 293 294 295 296 296 297 297 297 297 296 295 295 295 295 295 295 295 294 294 294 293 292 292 291 291 290 290 289
254 256 258 261 264 265 268 270 269 269 274 276 279 280 281 282 284 285 287 289 292 294 295 296 296 297 297 297 297 297 296 296 295 295 295 295 295 295 295 295 294 293 292 292 292 292 292 291 291
254 255 258 260 263 264 264 270 272 273 275 277 279 281 282 283 284 286 288 290 293 294 295 296 298 298 298 298 297 297 296 296 296 295 296 296 296 296 295 295 294 293 293 293 293 293 293 292 292
251 254 256 258 261 262 261 267 273 278 276 277 279 281 283 284 285 287 289 291 293 294 296 297 298 299 299 298 298 297 296 296 296 296 296 296 296 296 296 296 296 295 295 295 295 295 295 294 294
246 250 254 257 259 263 263 267 274 278 277 278 280 282 284 285 286 288 290 292 294 295 296 298 299 299 299 299 298 297 296 296 295 295 296 296 296 296 296 296 296 296 296 296 296 296 296 296 295
245 248 252 255 258 263 267 269 269 273 275 278 281 283 285 287 288 289 291 293 294 296 297 298 299 299 299 299 298 297 297 296 296 296 296 296 296 297 297 297 297 297 297 297 297 298 297 297 297
246 246 249 252 256 261 265 268 268 268 272 277 281 284 286 288 289 291 292 294 295 297 298 299 299 299 300 300 299 298 297 297 297 296 297 297 298 298 298 298 299 299 299 299 299 299 299 299 298
244 245 247 251 255 260 264 266 272 273 273 277 281 284 287 289 290 292 293 294 296 297 298 299 299 300 300 300 300 299 298 298 298 298 298 298 299 299 300 300 300 300 301 301 301 301 301 300 300
242 243 247 252 256 258 263 267 274 276 275 277 281 284 287 290 291 293 294 295 296 297 298 299 300 300 300 300 300 299 299 299 299 299 299 300 300 301 301 302 302 302 302 303 303 303 302 302 301
Height
5864 5864 5865 5866 5866 5866 5866 5866 5866 5867 5868 5868 5868 5869 5869 5870 5871 5874 5872 5871 5872 5872 5872 5872 5872 5873 5873 5873 5873 5873 5873 5873 5872 5872 5872 5872 5872 5872 5872 5872 5871 5872 5872 5872 5872 5872 5872 5872 5872
5865 5865 5866 5866 5866 5865 5866 5866 5867 5867 5868 5868 5868 5868 5868 5869 5870 5870 5870 5870 5871 5871 5871 5871 5871 5871 5871 5871 5871 5871 5871 5870 5870 5870 5870 5870 5870 5870 5869 5869 5869 5869 5869 5869 5869 5870 5870 5870 5870
5865 5865 5866 5866 5866 5866 5866 5866 5867 5867 5868 5868 5868 5868 5868 5869 5869 5869 5869 5869 5869 5869 5869 5869 5869 5869 5869 5869 5869 5869 5869 5869 5868 5868 5868 5868 5868 5868 5867 5867 5867 5867 5867 5867 5867 5867 5867 5867 5867
5865 5866 5866 5867 5866 5866 5866 5867 5867 5867 5868 5868 5868 5868 5868 5868 5868 5868 5867 5868 5868 5868 5868 5868 5868 5868 5868 5867 5867 5867 5867 5867 5867 5866 5866 5866 5866 5866 5866 5865 5865 5865 5865 5865 5865 5865 5865 5865 5865
5865 5865 5866 5865 5865 5865 5866 5866 5867 5867 5867 5867 5867 5867 5868 5867 5867 5867 5867 5867 5867 5867 5867 5866 5866 5866 5866 5866 5865 5865 5865 5865 5864 5864 5864 5864 5864 5864 5863 5863 5863 5863 5863 5863 5863 5862 5862 5862 5862
5864 5865 5865 5864 5864 5865 5866 5866 5866 5867 5867 5867 5867 5867 5867 5867 5866 5866 5866 5866 5865 5866 5865 5864 5865 5864 5864 5864 5863 5863 5863 5862 5862 5862 5862 5862 5861 5861 5861 5861 5861 5861 5860 5860 5860 5860 5859 5859 5859
5864 5864 5864 5864 5864 5864 5865 5865 5866 5866 5866 5866 5866 5866 5867 5866 5866 5865 5865 5864 5864 5864 5864 5863 5863 5862 5862 5861 5861 5861 5860 5860 5860 5859 5859 5859 5859 5858 5858 5858 5858 5857 5857 5857 5857 5856 5856 5856 5855
5862 5863 5863 5863 5863 5863 5864 5864 5864 5865 5865 5865 5865 5865 5865 5865 5865 5864 5863 5863 5862 5862 5862 5861 5860 5860 5859 5859 5858 5858 5857 5857 5856 5856 5856 5856 5855 5855 5855 5854 5854 5853 5853 5853 5853 5852 5852 5852 5851
5860 5862 5861 5861 5861 5862 5863 5863 5863 5863 5863 5863 5863 5863 5863 5863 5862 5862 5862 5861 5860 5860 5859 5859 5858 5857 5856 5856 5855 5854 5854 5853 5853 5852 5852 5851 5851 5851 5850 5850 5849 5849 5848 5848 5848 5848 5847 5847 5847
5858 5859 5859 5859 5860 5860 5861 5861 5861 5862 5861 5861 5861 5861 5861 5860 5860 5860 5859 5859 5858 5857 5856 5855 5855 5854 5853 5852 5851 5850 5850 5849 5848 5848 5847 5846 5846 5846 5845 5844 5844 5843 5843 5842 5842 5842 5841 5841 5841
5855 5856 5856 5857 5857 5858 5858 5859 5859 5859 5859 5859 5859 5859 5858 5858 5857 5857 5856 5856 5855 5853 5852 5852 5851 5850 5849 5848 5847 5846 5845 5844 5843 5843 5842 5841 5840 5840 5839 5838 5837 5837 5836 5836 5835 5835 5835 5834 5834
5852 5853 5853 5854 5855 5855 5855 5856 5856 5856 5856 5856 5856 5855 5855 5855 5854 5854 5853 5852 5851 5850 5849 5847 5846 5846 5844 5843 5842 5841 5840 5839 5838 5837 5836 5835 5834 5833 5833 5832 5831 5830 5829 5828 5828 5827 5827 5826 5826
5849 5849 5850 5851 5851 5851 5852 5852 5853 5853 5853 5852 5852 5852 5852 5851 5851 5850 5849 5848 5847 5846 5845 5843 5842 5841 5840 5839 5837 5836 5835 5834 5832 5831 5830 5829 5828 5827 5826 5825 5824 5823 5822 5821 5820 5819 5818 5818 5817
5845 5845 5846 5847 5847 5847 5848 5848 5849 5849 5849 5848 5848 5848 5847 5847 5846 5846 5845 5844 5843 5842 5840 5839 5837 5836 5835 5834 5832 5831 5829 5828 5826 5825 5824 5822 5821 5820 5819 5818 5817 5815 5814 5813 5812 5811 5810 5809 5808
5840 5841 5842 5843 5843 5843 5844 5844 5845 5845 5844 5844 5843 5843 5843 5842 5842 5841 5840 5839 5838 5837 5836 5834 5833 5831 5830 5828 5827 5825 5824 5822 5820 5819 5817 5816 5814 5813 5812 5811 5809 5808 5806 5805 5804 5802 5801 5800 5799
5835 5836 5837 5838 5838 5838 5840 5840 5840 5840 5839 5839 5839 5839 5838 5838 5837 5836 5835 5834 5833 5832 5830 5829 5827 5826 5824 5823 5821 5819 5818 5816 5815 5813 5811 5809 5808 5806 5805 5803 5801 5800 5798 5797 5795 5794 5792 5791 5790
5830 5831 5831 5833 5833 5833 5834 5834 5834 5835 5834 5834 5834 5834 5833 5833 5832 5831 5830 5829 5828 5827 5825 5824 5822 5821 5819 5817 5815 5814 5812 5810 5808 5807 5805 5803 5801 5799 5798 5796 5794 5792 5790 5789 5787 5785 5783 5782 5780
5825 5826 5826 5826 5828 5829 5828 5829 5828 5829 5829 5828 5828 5828 5828 5827 5827 5826 5825 5824 5822 5821 5820 5819 5817 5815 5813 5812 5810 5808 5806 5804 5802 5800 5798 5796 5794 5792 5790 5788 5786 5784 5782 5780 5778 5776 5774 5772 5770
5820 5820 5821 5822 5822 5823 5823 5823 5823 5823 5823 5823 5823 5823 5823 5822 5821 5820 5819 5818 5817 5816 5815 5813 5812 5810 5808 5806 5804 5802 5800 5798 5795 5793 5791 5789 5787 5784 5782 5780 5777 5775 5773 5771 5768 5766 5764 5762 5759
5814 5815 5816 5816 5816 5818 5817 5818 5818 5818 5818 5818 5817 5817 5817 5816 5816 5815 5814 5813 5812 5811 5809 5808 5806 5804 5802 5800 5798 5796 5793 5791 5789 5786 5784 5781 5779 5776 5774 5771 5769 5766 5764 5761 5758 5755 5753 5751 5747
5809 5810 5811 5811 5811 5812 5812 5813 5813 5813 5812 5812 5812 5812 5811 5811 5810 5809 5809 5808 5806 5805 5804 5802 5800 5798 5796 5794 5791 5789 5786 5784 5782 5779 5776 5774 5771 5768 5765 5762 5760 5757 5754 5751 5748 5744 5742 5739 5736
5803 5804 5805 5805 5805 5806 5806 5806 5808 5807 5807 5807 5806 5806 5806 5806 5805 5804 5803 5802 5801 5800 5798 5796 5794 5792 5789 5787 5785 5782 5779 5777 5774 5771 5769 5765 5762 5759 5756 5753 5750 5746 5743 5740 5737 5733 5730 5727 5724
5798 5799 5800 5800 5799 5801 5801 5800 5803 5803 5802 5802 5801 5801 5801 5801 5800 5799 5798 5797 5796 5794 5792 5790 5788 5785 5783 5780 5777 5775 5772 5769 5766 5763 5760 5757 5754 5750 5746 5743 5739 5736 5732 5728 5725 5721 5717 5713 5709
5792 5794 5794 5794 5794 5796 5797 5795 5796 5797 5797 5797 5796 5796 5796 5795 5795 5794 5793 5791 5790 5788 5786 5784 5781 5779 5776 5773 5770 5767 5764 5761 5758 5755 5751 5748 5744 5740 5736 5732 5728 5724 5720 5716 5712 5708 5703 5699 5694
5787 5788 5789 5789 5789 5790 5791 5790 5791 5792 5791 5791 5791 5791 5791 5790 5789 5788 5787 5785 5783 5782 5779 5777 5774 5771 5768 5765 5762 5759 5756 5752 5749 5745 5742 5738 5734 5730 5725 5721 5717 5712 5708 5703 5698 5694 5689 5683 5678
5780 5782 5784 5785 5784 5784 5785 5785 5787 5786 5785 5785 5785 5785 5785 5784 5783 5782 5781 5779 5777 5775 5772 5770 5767 5764 5761 5757 5754 5750 5747 5743 5739 5735 5731 5727 5723 5719 5714 5709 5705 5700 5694 5689 5684 5679 5673 5667 5661
5774 5776 5778 5778 5779 5779 5780 5781 5782 5781 5780 5779 5780 5780 5779 5778 5777 5776 5774 5772 5770 5767 5765 5762 5759 5755 5752 5748 5745 5741 5737 5733 5729 5725 5720 5716 5711 5707 5702 5697 5692 5686 5681 5675 5669 5663 5656 5650 5643
5769 5771 5772 5772 5773 5774 5775 5775 5776 5777 5775 5775 5774 5774 5773 5772 5770 5769 5767 5765 5762 5760 5757 5753 5750 5746 5743 5739 5735 5731 5727 5723 5718 5714 5709 5704 5699 5694 5689 5683 5678 5672 5665 5659 5653 5646 5639 5631 5624
5763 5765 5766 5767 5768 5769 5769 5771 5770 5771 5770 5769 5768 5767 5766 5765 5763 5761 5759 5757 5754 5751 5748 5744 5741 5737 5733 5729 5725 5720 5716 5711 5707 5702 5697 5692 5687 5681 5675 5669 5663 5656 5650 5642 5635 5627 5619 5611 5603
5756 5759 5760 5762 5762 5763 5763 5767 5765 5764 5763 5763 5762 5761 5760 5758 5756 5753 5751 5748 5745 5742 5738 5735 5731 5727 5723 5718 5714 5709 5705 5700 5695 5690 5684 5679 5673 5667 5660 5654 5647 5640 5632 5624 5616 5608 5599 5590 5581